EW5168 Weather Reports


Display with metric or nautical units.
time (UTC)temp
F
wind
direction
speed
MPH
gust
MPH
rain 1hr
in
rain 24hr
in
rain mn
in
humidity
%
barometer
mb
20260510051759 75 151 3.0 8.0 0.00 0.00 0.00 1 1009.8
20260510051257 76 158 3.0 10.0 0.00 0.00 0.00 1 1009.9
20260510050756 76 224 3.0 10.0 0.00 0.00 0.00 1 1009.8
20260510050257 76 188 3.0 8.0 0.00 0.00 0.00 1 1009.9
20260510045801 76 197 3.0 8.0 0.00 0.00 0.00 1 1009.8
20260510045757 76 180 3.0 7.0 0.00 0.00 0.00 1 1009.9
20260510044756 76 204 3.0 8.0 0.00 0.00 0.00 1 1009.9
20260510044301 76 156 3.0 7.0 0.00 0.00 0.00 1 1009.9
20260510044257 76 158 3.0 8.0 0.00 0.00 0.00 1 1009.8
20260510043256 76 161 3.0 7.0 0.00 0.00 0.00 1 1009.9
20260510042755 76 177 3.0 9.0 0.00 0.00 0.00 1 1010.0
20260510042259 76 167 3.0 7.0 0.00 0.00 0.00 1 1010.0
20260510042255 76 144 3.0 9.0 0.00 0.00 0.00 1 1010.1
20260510041254 76 180 3.0 7.0 0.00 0.00 0.00 1 1010.0
20260510040755 76 152 2.0 6.0 0.00 0.00 0.00 1 1010.0
20260510040255 76 177 1.0 6.0 0.00 0.00 0.00 1 1010.0
20260510035900 76 156 1.0 4.0 0.00 0.00 0.00 1 1009.8
20260510035757 76 179 1.0 4.0 0.00 0.00 0.00 1 1010.0
20260510035753 76 165 1.0 4.0 0.00 0.00 0.00 1 1009.9
20260510034250 76 203 1.0 4.0 0.00 0.00 0.00 1 1009.8
20260510033751 76 170 1.0 4.0 0.00 0.00 0.00 1 1009.8
20260510033257 76 163 1.0 4.0 0.00 0.00 0.00 1 1009.8
20260510033253 76 158 1.0 3.0 0.00 0.00 0.00 1 1009.7
20260510032857 76 170 1.0 4.0 0.00 0.00 0.00 1 1009.7
20260510031751 77 176 1.0 3.0 0.00 0.00 0.00 1 1009.6
20260510031248 77 156 1.0 4.0 0.00 0.00 0.00 1 1009.6
20260510030752 77 160 1.0 2.0 0.00 0.00 0.00 5 1009.4
20260510030748 77 178 1.0 4.0 0.00 0.00 0.00 3 1009.5
20260510025752 78 182 1.0 3.0 0.00 0.00 0.00 10 1009.3
20260510025747 78 160 1.0 2.0 0.00 0.00 0.00 7 1009.3
20260510024747 78 214 1.0 3.0 0.00 0.00 0.00 12 1009.3
20260510024247 78 155 1.0 3.0 0.00 0.00 0.00 15 1009.1
20260510023747 79 190 1.0 3.0 0.00 0.00 0.00 18 1009.0
20260510023247 79 182 1.0 3.0 0.00 0.00 0.00 22 1008.9
20260510022746 79 194 2.0 4.0 0.00 0.00 0.00 26 1008.9
20260510022244 80 161 1.0 4.0 0.00 0.00 0.00 30 1008.9
20260510021744 80 167 1.0 3.0 0.00 0.00 0.00 34 1008.8
20260510021249 80 160 1.0 5.0 0.00 0.00 0.00 40 1008.6
20260510021244 80 180 1.0 3.0 0.00 0.00 0.00 38 1008.7
20260510020245 81 170 1.0 5.0 0.00 0.00 0.00 43 1008.6
20260510015745 81 165 1.0 4.0 0.00 0.00 0.00 45 1008.5
20260510015244 81 166 0.0 4.0 0.00 0.00 0.00 46 1008.4
20260510014742 82 171 1.0 2.0 0.00 0.00 0.00 47 1008.4
20260510014246 82 169 1.0 4.0 0.00 0.00 0.00 49 1008.2
20260510014242 82 171 1.0 4.0 0.00 0.00 0.00 48 1008.2
20260510013243 83 169 1.0 2.0 0.00 0.00 0.00 49 1008.1
20260510012740 83 160 1.0 2.0 0.00 0.00 0.00 49 1008.1
20260510012240 83 160 1.0 2.0 0.00 0.00 0.00 49 1008.0
20260510011740 84 163 1.0 2.0 0.00 0.00 0.00 49 1007.9
20260510011240 84 163 1.0 2.0 0.00 0.00 0.00 49 1007.9
20260510010741 85 162 0.0 2.0 0.00 0.00 0.00 48 1007.8
20260510010240 85 162 0.0 2.0 0.00 0.00 0.00 48 1007.8
20260510005740 86 162 0.0 2.0 0.00 0.00 0.00 48 1007.8
20260510005240 86 162 1.0 2.0 0.00 0.00 0.00 48 1007.7
20260510004740 86 162 1.0 2.0 0.00 0.00 0.00 47 1007.7
20260510004242 87 162 1.0 2.0 0.00 0.00 0.00 46 1007.8
20260510003744 87 162 1.0 4.0 0.00 0.00 0.00 46 1007.7
20260510003740 87 162 1.0 2.0 0.00 0.00 0.00 46 1007.7
20260510002740 87 148 1.0 4.0 0.00 0.00 0.00 46 1007.6
20260510002240 87 153 1.0 3.0 0.00 0.00 0.00 45 1007.6
20260510001741 88 153 1.0 2.0 0.00 0.00 0.00 45 1007.6
20260510001737 88 153 1.0 3.0 0.00 0.00 0.00 44 1007.6
20260510000736 88 190 1.0 3.0 0.00 0.00 0.00 44 1007.5
20260510000238 88 160 1.0 4.0 0.00 0.00 0.00 44 1007.5
20260510000234 88 160 1.0 4.0 0.00 0.00 0.00 44 1007.4
20260509235838 89 182 1.0 3.0 0.00 0.00 0.00 44 1007.4
20260509234730 89 182 1.0 4.0 0.00 0.00 0.00 43 1007.4
20260509234230 89 206 1.0 4.0 0.00 0.00 0.00 44 1007.5
20260509233730 89 183 2.0 5.0 0.00 0.00 0.00 43 1007.4
20260509233234 89 152 3.0 6.0 0.00 0.00 0.00 44 1007.3
20260509233230 89 205 2.0 6.0 0.00 0.00 0.00 43 1007.4
20260509232230 89 159 2.0 6.0 0.00 0.00 0.00 44 1007.3
20260509231729 89 164 1.0 6.0 0.00 0.00 0.00 44 1007.3
20260509231227 89 179 1.0 3.0 0.00 0.00 0.00 43 1007.3
20260509230726 89 200 1.0 5.0 0.00 0.00 0.00 43 1007.3
20260509230226 89 219 1.0 5.0 0.00 0.00 0.00 43 1007.3
20260509225726 89 187 2.0 6.0 0.00 0.00 0.00 43 1007.3
20260509225227 90 146 2.0 6.0 0.00 0.00 0.00 43 1007.3
20260509224727 90 167 1.0 5.0 0.00 0.00 0.00 43 1007.4
20260509224226 90 181 0.0 0.0 0.00 0.00 0.00 43 1007.3
20260509223724 90 181 1.0 4.0 0.00 0.00 0.00 42 1007.4
20260509223224 90 181 1.0 4.0 0.00 0.00 0.00 41 1007.4
20260509222724 90 257 0.0 2.0 0.00 0.00 0.00 42 1007.3
20260509222224 91 317 0.0 2.0 0.00 0.00 0.00 40 1007.4
20260509221723 91 309 0.0 2.0 0.00 0.00 0.00 40 1007.4
20260509221224 91 235 0.0 2.0 0.00 0.00 0.00 41 1007.4
20260509220723 91 235 1.0 2.0 0.00 0.00 0.00 40 1007.4
20260509220224 91 161 0.0 2.0 0.00 0.00 0.00 41 1007.4
20260509215728 92 161 0.0 1.0 0.00 0.00 0.00 40 1007.4
20260509215724 92 161 0.0 1.0 0.00 0.00 0.00 40 1007.4
20260509214722 92 312 0.0 2.0 0.00 0.00 0.00 40 1007.5
20260509214222 91 312 1.0 2.0 0.00 0.00 0.00 41 1007.5
20260509213726 91 326 0.0 1.0 0.00 0.00 0.00 40 1007.7
20260509213722 91 312 0.0 2.0 0.00 0.00 0.00 41 1007.6
20260509212722 91 326 0.0 1.0 0.00 0.00 0.00 42 1007.6
20260509212222 91 326 0.0 2.0 0.00 0.00 0.00 41 1007.7
20260509211721 91 326 0.0 3.0 0.00 0.00 0.00 41 1007.8
20260509211218 91 331 0.0 3.0 0.00 0.00 0.00 42 1007.8
20260509210721 90 170 0.0 3.0 0.00 0.00 0.00 41 1007.9
20260509210717 91 194 1.0 4.0 0.00 0.00 0.00 42 1007.9
20260509205716 91 180 1.0 4.0 0.00 0.00 0.00 41 1007.9
20260509205216 91 329 1.0 2.0 0.00 0.00 0.00 41 1008.1
20260509204716 91 195 0.0 2.0 0.00 0.00 0.00 40 1008.2
20260509204220 91 51 1.0 4.0 0.00 0.00 0.00 41 1008.3
20260509204216 92 325 1.0 4.0 0.00 0.00 0.00 40 1008.2
20260509203218 91 309 1.0 5.0 0.00 0.00 0.00 41 1008.4
20260509203214 91 184 1.0 5.0 0.00 0.00 0.00 42 1008.5
20260509202209 91 149 1.0 3.0 0.00 0.00 0.00 41 1008.5
20260509201710 91 289 1.0 3.0 0.00 0.00 0.00 40 1008.6
20260509201210 90 166 1.0 3.0 0.00 0.00 0.00 40 1008.6
20260509200708 90 314 1.0 2.0 0.00 0.00 0.00 40 1008.7
20260509200207 90 314 1.0 5.0 0.00 0.00 0.00 40 1008.8
20260509195705 90 346 1.0 5.0 0.00 0.00 0.00 40 1008.8
20260509195205 90 140 1.0 4.0 0.00 0.00 0.00 42 1008.8
20260509194704 90 9 1.0 4.0 0.00 0.00 0.00 40 1008.9
20260509194203 90 261 1.0 3.0 0.00 0.00 0.00 42 1008.9
20260509193707 90 339 1.0 3.0 0.00 0.00 0.00 39 1009.1
20260509193703 90 303 1.0 3.0 0.00 0.00 0.00 41 1009.0
20260509192703 91 66 1.0 3.0 0.00 0.00 0.00 39 1009.1
20260509192203 90 178 1.0 3.0 0.00 0.00 0.00 40 1009.3
20260509191704 89 46 1.0 3.0 0.00 0.00 0.00 40 1009.4
20260509191204 89 184 1.0 3.0 0.00 0.00 0.00 41 1009.5
20260509190704 89 321 1.0 3.0 0.00 0.00 0.00 40 1009.5
20260509190202 90 342 1.0 3.0 0.00 0.00 0.00 40 1009.6
20260509185706 88 64 1.0 3.0 0.00 0.00 0.00 41 1009.7
20260509185702 89 350 1.0 3.0 0.00 0.00 0.00 41 1009.6
20260509184659 89 333 1.0 3.0 0.00 0.00 0.00 39 1009.7
20260509184159 89 221 1.0 3.0 0.00 0.00 0.00 39 1009.8
20260509183700 89 316 1.0 2.0 0.00 0.00 0.00 40 1009.8
20260509183200 87 312 1.0 2.0 0.00 0.00 0.00 41 1009.9
20260509182658 87 224 1.0 3.0 0.00 0.00 0.00 40 1010.0
20260509182155 88 197 1.0 3.0 0.00 0.00 0.00 39 1010.1
20260509181655 89 315 1.0 3.0 0.00 0.00 0.00 39 1010.2
20260509181153 88 227 1.0 4.0 0.00 0.00 0.00 39 1010.1
20260509180657 87 211 1.0 3.0 0.00 0.00 0.00 39 1010.3
20260509180653 87 203 1.0 4.0 0.00 0.00 0.00 39 1010.2
20260509175659 87 319 1.0 4.0 0.00 0.00 0.00 38 1010.4
20260509175653 88 313 1.0 4.0 0.00 0.00 0.00 37 1010.3
20260509174653 87 331 0.0 3.0 0.00 0.00 0.00 37 1010.4
20260509174153 88 301 0.0 2.0 0.00 0.00 0.00 36 1010.4
20260509174149 86 301 1.0 3.0 0.00 0.00 0.00 38 1010.5
20260509173753 86 225 1.0 3.0 0.00 0.00 0.00 36 1010.6
20260509172645 86 194 1.0 2.0 0.00 0.00 0.00 36 1010.7
20260509172146 86 339 1.0 2.0 0.00 0.00 0.00 36 1010.7
20260509171646 86 348 1.0 3.0 0.00 0.00 0.00 35 1010.7
20260509171143 85 311 1.0 3.0 0.00 0.00 0.00 35 1010.7
20260509170643 85 194 1.0 2.0 0.00 0.00 0.00 35 1010.7
20260509170143 84 238 1.0 2.0 0.00 0.00 0.00 35 1010.7
20260509165648 84 340 1.0 3.0 0.00 0.00 0.00 34 1010.8
20260509165643 84 331 1.0 3.0 0.00 0.00 0.00 35 1010.8
20260509164641 84 346 1.0 2.0 0.00 0.00 0.00 33 1010.8
20260509164137 83 322 1.0 3.0 0.00 0.00 0.00 32 1010.8
20260509163635 83 302 1.0 3.0 0.00 0.00 0.00 30 1010.8
20260509163139 82 329 1.0 3.0 0.00 0.00 0.00 27 1010.9
20260509163135 82 329 1.0 2.0 0.00 0.00 0.00 28 1010.9
20260509162133 82 332 1.0 3.0 0.00 0.00 0.00 26 1010.9
20260509161633 81 338 1.0 2.0 0.00 0.00 0.00 22 1010.9
20260509161131 81 321 1.0 2.0 0.00 0.00 0.00 23 1010.9
20260509160629 80 11 1.0 2.0 0.00 0.00 0.00 18 1011.0
20260509160131 79 306 1.0 3.0 0.00 0.00 0.00 13 1011.0
20260509160128 80 22 1.0 3.0 0.00 0.00 0.00 17 1011.0
20260509155125 79 57 0.0 2.0 0.00 0.00 0.00 5 1011.0
20260509154624 78 318 0.0 2.0 0.00 0.00 0.00 1 1011.1
20260509154129 77 320 1.0 3.0 0.00 0.00 0.00 1 1011.1
20260509154125 78 320 1.0 3.0 0.00 0.00 0.00 1 1011.1
20260509153128 76 5 0.0 2.0 0.00 0.00 0.00 1 1011.1
20260509153123 77 328 0.0 3.0 0.00 0.00 0.00 1 1011.1
20260509152121 76 12 0.0 2.0 0.00 0.00 0.00 1 1011.0
20260509151619 76 323 1.0 2.0 0.00 0.00 0.00 1 1011.0
20260509151118 76 50 1.0 3.0 0.00 0.00 0.00 1 1011.1
20260509150619 75 329 1.0 3.0 0.00 0.00 0.00 1 1011.0
20260509150119 75 82 1.0 3.0 0.00 0.00 0.00 1 1011.0
20260509145619 75 339 1.0 3.0 0.00 0.00 0.00 1 1010.9
20260509145119 75 336 0.0 3.0 0.00 0.00 0.00 1 1010.8
20260509144619 74 339 1.0 3.0 0.00 0.00 0.00 1 1010.7
20260509144119 74 60 1.0 4.0 0.00 0.00 0.00 1 1010.7
20260509143619 74 66 1.0 4.0 0.00 0.00 0.00 1 1010.6
20260509143121 73 67 1.0 3.0 0.00 0.00 0.00 1 1010.6
20260509143117 73 71 1.0 3.0 0.00 0.00 0.00 1 1010.5
20260509142119 73 315 1.0 3.0 0.00 0.00 0.00 1 1010.6
20260509142115 73 9 1.0 3.0 0.00 0.00 0.00 1 1010.6
20260509141115 73 313 1.0 3.0 0.00 0.00 0.00 1 1010.6
20260509140614 72 319 0.0 2.0 0.00 0.00 0.00 1 1010.6
20260509140115 72 42 0.0 2.0 0.00 0.00 0.00 1 1010.7
20260509135613 72 42 0.0 2.0 0.00 0.00 0.00 1 1010.7
20260509135113 72 317 1.0 2.0 0.00 0.00 0.00 1 1010.6
20260509134613 72 332 1.0 2.0 0.00 0.00 0.00 1 1010.7
20260509134112 72 332 0.0 2.0 0.00 0.00 0.00 1 1010.6
20260509133613 72 273 0.0 2.0 0.00 0.00 0.00 1 1010.6
20260509133113 72 321 0.0 2.0 0.00 0.00 0.00 1 1010.4
20260509132613 71 326 0.0 2.0 0.00 0.00 0.00 1 1010.1
20260509132112 71 296 0.0 2.0 0.00 0.00 0.00 1 1009.9
20260509131608 71 296 0.0 2.0 0.00 0.00 0.00 1 1010.0
20260509131112 71 296 0.0 1.0 0.00 0.00 0.00 1 1010.1
20260509131108 71 296 0.0 1.0 0.00 0.00 0.00 1 1009.9
20260509130109 71 296 1.0 3.0 0.00 0.00 0.00 1 1010.1
20260509125609 71 296 1.0 3.0 0.00 0.00 0.00 1 1010.2
20260509125109 71 80 1.0 2.0 0.00 0.00 0.00 1 1010.0
20260509124613 71 0 2.0 6.0 0.00 0.00 0.00 1 1010.2
20260509124609 71 71 1.0 3.0 0.00 0.00 0.00 1 1009.9
20260509123612 70 156 4.0 9.0 0.00 0.00 0.00 1 1008.1
20260509123608 70 146 3.0 9.0 0.00 0.00 0.00 1 1008.9
20260509122608 70 171 4.0 9.0 0.00 0.00 0.00 1 1008.1
20260509122107 70 177 3.0 9.0 0.00 0.00 0.00 1 1008.1
20260509121607 70 177 3.0 9.0 0.00 0.00 0.00 1 1008.1
20260509121106 69 153 3.0 9.0 0.00 0.00 0.00 1 1007.9
20260509120606 69 152 5.0 10.0 0.00 0.00 0.00 1 1007.8
20260509120106 69 194 5.0 11.0 0.00 0.00 0.00 1 1007.6
20260509115608 69 169 5.0 12.0 0.00 0.00 0.00 1 1007.6
20260509115604 69 150 6.0 12.0 0.00 0.00 0.00 1 1007.3
20260509114603 69 151 5.0 10.0 0.00 0.00 0.00 1 1008.0
20260509114102 70 237 4.0 10.0 0.00 0.00 0.00 1 1008.3
20260509113600 70 201 3.0 9.0 0.00 0.00 0.00 1 1008.7
20260509113100 70 193 1.0 5.0 0.00 0.00 0.00 1 1008.9
20260509112600 70 173 1.0 4.0 0.00 0.00 0.00 1 1009.3
20260509112058 70 233 1.0 8.0 0.00 0.00 0.00 1 1009.6
20260509111601 70 194 3.0 7.0 0.00 0.00 0.00 1 1009.5
20260509111557 70 236 2.0 9.0 0.00 0.00 0.00 1 1009.7
20260509110557 70 160 4.0 11.0 0.00 0.00 0.00 1 1009.3
20260509110056 70 159 4.0 11.0 0.00 0.00 0.00 1 1009.1
20260509105556 70 165 4.0 11.0 0.00 0.00 0.00 1 1009.4
20260509105056 70 180 3.0 8.0 0.00 0.00 0.00 1 1009.8
20260509104555 70 203 3.0 8.0 0.00 0.00 0.00 1 1010.0
20260509104055 70 143 3.0 7.0 0.00 0.00 0.00 1 1010.0
20260509103558 70 166 3.0 8.0 0.00 0.00 0.00 1 1010.2
20260509103554 70 171 3.0 8.0 0.00 0.00 0.00 1 1010.1
20260509102558 69 171 1.0 3.0 0.00 0.00 0.00 1 1010.5
20260509102554 69 158 2.0 6.0 0.00 0.00 0.00 1 1010.3
20260509101552 69 167 0.0 3.0 0.00 0.00 0.00 1 1010.5
20260509101058 69 322 0.0 2.0 0.00 0.00 0.00 1 1010.6
20260509101053 69 215 0.0 2.0 0.00 0.00 0.00 1 1010.5
20260509100056 69 328 0.0 1.0 0.00 0.00 0.00 1 1010.7
20260509100052 69 315 0.0 2.0 0.00 0.00 0.00 1 1010.7
20260509095051 69 328 0.0 1.0 0.00 0.00 0.00 1 1010.7
20260509094554 69 119 0.0 0.0 0.00 0.00 0.00 1 1010.7
20260509094550 69 348 0.0 1.0 0.00 0.00 0.00 1 1010.8
20260509093548 69 119 0.0 0.0 0.00 0.00 0.00 1 1010.9
20260509093048 69 119 0.0 0.0 0.00 0.00 0.00 1 1010.8
20260509092551 69 119 0.0 0.0 0.00 0.00 0.00 1 1010.8
20260509092547 69 119 0.0 0.0 0.00 0.00 0.00 1 1010.9
20260509091546 69 119 0.0 0.0 0.00 0.00 0.00 1 1010.8
20260509091046 69 119 0.0 0.0 0.00 0.00 0.00 1 1010.9
20260509090546 69 119 0.0 0.0 0.00 0.00 0.00 1 1010.9
20260509090046 69 119 0.0 0.0 0.00 0.00 0.00 1 1010.6
20260509085545 69 119 0.0 0.0 0.00 0.00 0.00 1 1010.6
20260509085042 69 119 0.0 1.0 0.00 0.00 0.00 1 1010.7
20260509084542 69 119 0.0 1.0 0.00 0.00 0.00 1 1010.8
20260509084043 69 119 0.0 1.0 0.00 0.00 0.00 1 1010.9
20260509083542 69 148 0.0 1.0 0.00 0.00 0.00 1 1011.0
20260509083042 69 146 0.0 1.0 0.00 0.00 0.00 1 1011.1
20260509082541 69 146 0.0 0.0 0.00 0.00 0.00 1 1011.1
20260509082042 69 146 0.0 0.0 0.00 0.00 0.00 1 1011.1
20260509081543 69 146 0.0 0.0 0.00 0.00 0.00 1 1011.1
20260509081040 70 146 0.0 0.0 0.00 0.00 0.00 1 1011.1
20260509080540 70 146 0.0 1.0 0.00 0.00 0.00 1 1011.0
20260509080040 70 146 0.0 2.0 0.00 0.00 0.00 1 1010.9
20260509075537 70 146 1.0 2.0 0.00 0.00 0.00 1 1010.7
20260509075042 70 171 1.0 4.0 0.00 0.00 0.00 1 1010.6
20260509075037 70 194 1.0 2.0 0.00 0.00 0.00 1 1010.6
20260509074036 70 142 1.0 4.0 0.00 0.00 0.00 1 1010.4
20260509073535 70 160 2.0 4.0 0.00 0.00 0.00 1 1010.4
20260509073034 69 188 2.0 5.0 0.00 0.00 0.00 1 1010.5
20260509072533 69 193 2.0 5.0 0.00 0.00 0.00 1 1010.3
20260509072038 69 183 0.0 0.0 0.00 0.00 0.00 1 1010.8
20260509072034 69 165 1.0 4.0 0.00 0.00 0.00 1 1010.2
20260509071637 69 183 0.0 2.0 0.00 0.00 0.00 1 1010.4
20260509071137 69 183 0.0 1.0 0.00 0.00 0.00 1 1010.8
20260509070030 70 183 0.0 1.0 0.00 0.00 0.00 1 1010.9
20260509065530 70 183 0.0 1.0 0.00 0.00 0.00 1 1011.0
20260509065026 70 183 0.0 0.0 0.00 0.00 0.00 1 1011.0
20260509064524 70 183 0.0 1.0 0.00 0.00 0.00 1 1011.0
20260509064024 69 183 0.0 1.0 0.00 0.00 0.00 1 1010.8
20260509063529 69 183 0.0 2.0 0.00 0.00 0.00 1 1010.6
20260509063525 69 183 0.0 1.0 0.00 0.00 0.00 1 1010.6
20260509063129 69 183 0.0 2.0 0.00 0.00 0.00 1 1010.6
20260509062024 69 183 0.0 0.0 0.00 0.00 0.00 1 1010.4
20260509061528 69 183 0.0 0.0 0.00 0.00 0.00 1 1010.2
20260509061524 69 183 0.0 0.0 0.00 0.00 0.00 1 1010.2
20260509060524 69 183 0.0 1.0 0.00 0.00 0.00 1 1010.1
20260509060024 69 183 0.0 2.0 0.00 0.00 0.00 1 1010.0
20260509055522 69 183 0.0 2.0 0.00 0.00 0.00 1 1009.9
20260509055019 69 183 1.0 2.0 0.00 0.00 0.00 1 1009.9
20260509054519 69 183 1.0 2.0 0.00 0.00 0.00 1 1009.9
20260509054019 69 183 0.0 1.0 0.00 0.00 0.00 1 1010.0
20260509053523 69 183 0.0 0.0 0.00 0.00 0.00 1 1010.0
20260509053519 69 183 0.0 1.0 0.00 0.00 0.00 1 1009.9
20260509052515 69 183 0.0 0.0 0.00 0.00 0.00 1 1010.1
20260509052015 70 183 0.0 0.0 0.00 0.00 0.00 1 1010.1